Regional Weather Roundup
Issued by NWS Midland/Odessa, TX

Skip options and go directly to product.
Home | Oldest Version | Previous Version | Current Version | All | Graphics & Text | Save Text | Print | Product List | Glossary On

Skip product version selection by date and time.   
743
ASUS44 KMAF 291910
RWRMAF
MIDLAND AREA WEATHER ROUNDUP
NATIONAL WEATHER SERVICE MIDLAND TX
200 PM CDT SUN MAY 29 2016

...IN SOUTHWEST TEXAS AND SOUTHEAST NEW MEXICO...

CITY           SKY/WX    TMP DP  RH WIND       PRES   REMARKS
ALPINE         CLOUDY    80  58  48 S7        30.22F
ANDREWS        PTSUNNY   80  62  54 S14G21    30.13F
ARTESIA        SUNNY     86  55  35 SE9G18    30.08F
BIG SPRING     MOSUNNY   81  62  52 S17G25    30.13F
CARLSBAD       MOSUNNY   85  60  42 SE12G21   30.06F
DRYDEN           N/A     75  68  78 SE12      30.09F
FORT STOCKTON  NOT AVBL
GUAD PASS      NOT AVBL
HOBBS          MOSUNNY   77  63  61 SE16      30.14F
MARFA          PTSUNNY   80  53  39 SW8       30.19F
MIDLAND AIRPK  CLOUDY    83  62  49 S16       30.12F
MIDLAND INTL   CLOUDY    81  63  54 S20G26    30.12S
ODESSA         CLOUDY    79  63  57 S18G25    30.13F
PECOS          CLOUDY    84  64  49 E15       30.05F
PRESIDIO       FAIR      88  59  36 NE10      30.05F
SEMINOLE       CLOUDY    81  62  51 S13G22    30.13F
SNYDER           N/A     83  65  55 S13G20    30.12S
WINK           NOT AVBL
$$
...OTHER STATIONS IN TEXAS...

CITY           SKY/WX    TMP DP  RH WIND       PRES   REMARKS
ABILENE        SUNNY     84  65  52 S13       30.09F
AMARILLO       CLOUDY    79  58  48 S22       30.10F
AUSTIN         CLOUDY    84  69  60 SE16      30.05S
BROWNSVILLE    PTSUNNY   86  75  69 E17       30.02F
CORPUS CHRISTI PTSUNNY   87  73  62 SE14      30.04S
DALLAS FTW     PTSUNNY   87  66  49 E6        30.06F
DEL RIO          N/A     88  69  53 SE18G28   30.02F
EL PASO        MOSUNNY   90  18   7 VRB6      30.08F
HOUSTON INT    CLOUDY    85  70  60 E12G21    30.06F
LUBBOCK        PTSUNNY   82  62  50 SW18      30.13F
SAN ANGELO     MOSUNNY   86  65  49 S17G23    30.08F
SAN ANTONIO    MOSUNNY   85  68  56 SE9       30.06F
WACO           CLOUDY    87  69  54 SE12      30.06F
WICHITA FALLS  NOT AVBL
$$
...OTHER LOCATIONS IN NEW MEXICO...

CITY           SKY/WX    TMP DP  RH WIND       PRES   REMARKS
ALAMAGORDO     SUNNY     86  19   8 NW6       30.10F
ALBUQUERQUE    MOSUNNY   80  12   7 SW13      30.15F
CANNON AFB     CLOUDY    79  60  52 S16       30.14F
CLOVIS         SUNNY     81  57  44 S18       30.14F
HOLLOMAN AFB   MOSUNNY   87  16   7 W2        30.08F
ROSWELL        MOSUNNY   84  56  38 SE10      30.08F
RUIDOSO        SUNNY     75  18  11 W14G24    30.27F
SANTA FE       SUNNY     80  11   7 MISG      30.19F
TRUTH OR CONSE SUNNY     84  19   9 S9G25     30.10F
TUCUMCARI      CLOUDY    65  58  78 NE14      30.08F
$$

USA.gov is the U.S. government's official web portal to all federal, state and local government web resources and services.